Location: Kolin
(50.0330°N, 15.2000°E)
Time: 08:05:51
(UTC+02:00)

Gurwin Techsat 1B - Pass Details

Date: 20 August 2022
Orbit: 811 x 814 km, 98.8° (Epoch: 25 September)

Event Time Altitude Azimuth Distance (km) Brightness Sun altitude
Rises 03:10:17 0° 19° (NNE) 3,351 13.2 -21.5°
Reaches altitude 10° 03:12:45 10° 27° (NNE) 2,414 12.2 -21.3°
Maximum altitude 03:17:50 43° 98° (E) 1,126 9.5 -20.8°
Enters shadow 03:21:02 21° 160° (SSE) 1,755 10.0 -20.5°
